Regional Weather Roundup
Issued by NWS

Home | Current Version | Previous Version | Graphics & Text | Print | Product List | Glossary On
Versions: 1 2 3 4 5 6 7 8 9 10 11 12 13 14 15 16 17 18 19 20 21 22 23 24 25 26 27 28 29 30 31 32 33 34 35 36 37 38 39 40 41 42 43 44 45 46 47 48 49 50
000
ASUS43 KLSX 020210
RWRMO

WEATHER SUMMARY FOR MISSOURI
NATIONAL WEATHER SERVICE SPRINGFIELD MO
900 PM CDT SUN MAY 01 2016

NOTE: "FAIR" INDICATES FEW OR NO CLOUDS BELOW 12,000 FEET WITH NO
       SIGNIFICANT WEATHER AND/OR OBSTRUCTIONS TO VISIBILITY.
       CURRENT SKY AND/OR WEATHER CONDITIONS ARE NOT AVAILABLE FOR
       CHILLICOTHE AND FARMINGTON.

MOZ001>031-035>038-043-044-053-054-020300-
...NORTHERN AND WESTERN MISSOURI...

CITY           SKY/WX    TMP DP  RH WIND       PRES   REMARKS
KANSAS CTY INT CLOUDY    50  44  80 N10       30.09S
KANSAS C DTWN  CLOUDY    53  44  71 N12       30.09R
LEE`S SUMMIT   CLOUDY    52  45  77 N14       30.09R
ST JOSEPH      CLOUDY    50  44  80 N9        30.11R
CHILLICOTHE      N/A     51  45  79 N7        30.10R
KIRKSVILLE     CLOUDY    48  45  89 NW5       30.06R

$$
MOZ066>068-077>081-088>096-101>105-020300-
...SOUTHWEST MISSOURI...

CITY           SKY/WX    TMP DP  RH WIND       PRES   REMARKS
SPRINGFIELD    CLEAR     56  44  64 W5        30.04S
JOPLIN         CLOUDY    56  48  74 W6        30.07R
BRANSON        PTCLDY    57  45  62 NW7       30.04S

$$
MOZ032>034-039>042-045>050-055>058-069>072-020300-
...CENTRAL MISSOURI...

CITY           SKY/WX    TMP DP  RH WIND       PRES   REMARKS
COLUMBIA       MOCLDY    54  46  74 NW16      30.05R
JEFFERSON CITY CLEAR     57  48  72 NW9       30.04R
ROLLA          CLOUDY    57  45  64 W6        30.01R
SEDALIA        CLOUDY    55  48  77 N15       30.07R
WHITEMAN AFB   CLOUDY    54  51  90 N12       30.05R
WARRENSBURG    CLOUDY    54  45  71 NW8G16    30.07R
OSAGE BEACH    MOCLDY    57  39  51 NW3       30.04R

$$
MOZ051-052-059>065-020300-
...EAST CENTRAL MISSOURI...

CITY           SKY/WX    TMP DP  RH WIND       PRES   REMARKS
ST LOUIS INTL  PTCLDY    62  46  55 NW14G20   29.99R
SPIRIT OF STL  CLEAR     60  47  61 W8        29.99R
ST CHARLES     CLEAR     59  49  69 NW10      29.98R

$$
MOZ072>076-082>087-097>100-106>115-020300-
...SOUTH CENTRAL AND SOUTHEAST MISSOURI...

CITY           SKY/WX    TMP DP  RH WIND       PRES   REMARKS
CAPE GIRARDEAU CLEAR     67  59  75 SW7       29.92R
FARMINGTON     CLEAR     62  47  57 NW8       29.99R
POPLAR BLUFF   CLEAR     70  54  56 W5        29.94R
WEST PLAINS    CLEAR     59  46  62 NW5       30.02R

$$




USA.gov is the U.S. government's official web portal to all federal, state and local government web resources and services.